Simultaneous Nadir Overpasses (SNOs) Predictions

Prediction of SNOs between GOES-16 and TERRA Satellite Orbit:

Table of predicted SNOs for the next 14.0 days since TLE Epoch: 11/16/2024
Index Date Time (GOES-16) GOES-16 Lat,Lon TERRA Lat,Lon Distance(km) Time Diff (sec)
1 11/16/2024 14:22:32 -0.04, -75.20 -0.74, -71.72 394.77 80
2 11/17/2024 02:45:01 0.03, -75.17 -0.28, -76.55 156.60 80
3 11/19/2024 02:24:07 0.02, -75.17 0.64, -72.15 343.33 80
4 11/19/2024 14:43:50 -0.02, -75.20 0.34, -76.95 198.19 80
5 11/21/2024 14:25:35 -0.01, -75.22 -0.57, -72.55 303.11 80
6 11/22/2024 02:48:05 0.01, -75.19 -0.42, -77.37 247.58 80
7 11/24/2024 02:27:09 0.01, -75.21 0.47, -72.97 255.16 80
8 11/24/2024 14:46:51 -0.01, -75.25 0.54, -77.76 285.62 80
9 11/26/2024 14:28:35 -0.01, -75.28 -0.41, -73.36 218.36 80
10 11/27/2024 02:51:04 0.00, -75.26 -0.63, -78.17 331.72 80
11 11/29/2024 02:30:07 0.00, -75.29 0.30, -73.77 173.04 80
12 11/29/2024 14:49:49 0.00, -75.33 0.68, -78.56 367.31 80
